Regional Weather Roundup
Issued by NWS

Home | Current Version | Previous Version | Graphics & Text | Print | Product List | Glossary On
Versions: 1 2 3 4 5 6 7 8 9 10 11 12 13 14 15 16 17 18 19 20 21 22 23 24 25 26 27 28 29 30 31 32 33 34 35 36 37 38 39 40 41 42 43 44 45 46 47 48 49 50
329
ASUS43 KOAX 011002
RWRNE

WEATHER ROUNDUP FOR NEBRASKA
NATIONAL WEATHER SERVICE OMAHA NE
500 AM CDT SAT OCT 01 2016

NOTES: SATELLITE DATA IS BEING USED TO AUGMENT CLOUD COVER ABOVE
       12000 FEET.
       "FAIR" INDICATES FEW OR NO CLOUDS BELOW 12,000 FEET WITH NO
       SIGNIFICANT WEATHER AND/OR OBSTRUCTIONS TO VISIBILITY.

  * THESE STATIONS DO NOT REPORT WEATHER SUCH AS RAIN...SNOW OR FOG.

NEZ001>004-019>022-054>056-011100-
NEBRASKA PANHANDLE

CITY           SKY/WX    TMP DP  RH WIND       PRES   REMARKS
SCOTTSBLUFF    CLEAR     49  45  86 E7        30.08F
ALLIANCE       CLOUDY    48  45  89 SE9       30.08F
CHADRON        CLEAR     54  45  71 SW5       30.04S
KIMBALL        CLEAR     47  45  93 W6        30.13S
SIDNEY         CLEAR     48  43  82 S7        30.11F
$$

NEZ057>060-069>072-079>082-011100-
SOUTHWEST NEBRASKA

CITY           SKY/WX    TMP DP  RH WIND       PRES   REMARKS
NORTH PLATTE   PTCLDY    50  45  83 E8        30.12F
IMPERIAL       CLOUDY    53  45  74 SE9       30.12F
LEXINGTON      CLOUDY    49  45  87 CALM      30.14S
MCCOOK         CLEAR     50  44  80 NE3       30.13S
OGALLALA       CLOUDY    52  46  77 CALM      30.11F
$$

NEZ005>010-023>029-035>040-094-011100-
NORTH CENTRAL NEBRASKA

CITY           SKY/WX    TMP DP  RH WIND       PRES   REMARKS
VALENTINE      PTCLDY    50  43  77 E3        30.10F
AINSWORTH      CLEAR     48  44  86 S5        30.12F
BROKEN BOW     CLOUDY    45  42  89 CALM      30.13F
O`NEILL        PTCLDY    48  44  85 SE5       30.14S
ORD            PTCLDY    45  42  89 CALM      30.13F
THEDFORD       CLOUDY    47  44  90 CALM      30.13S
$$

NEZ041-046>049-061>064-073>077-083>087-011100-
SOUTH CENTRAL NEBRASKA

CITY           SKY/WX    TMP DP  RH WIND       PRES   REMARKS
GRAND ISLAND   MOCLDY    51  46  83 S5        30.15S
AURORA         PTCLDY    50  49  97 SE3       30.15S
HASTINGS       CLOUDY    54  44  69 SE5       30.15S
HEBRON         CLOUDY    48  46  93 CALM      30.15S
HOLDREGE       CLOUDY    48  43  84 CALM      30.14S
KEARNEY *      CLOUDY    54  45  71 CALM      30.14S
YORK           MOCLDY    48  46  93 CALM      30.16R
$$

NEZ011>018-030>034-042>045-011100-
NORTHEAST NEBRASKA

CITY           SKY/WX    TMP DP  RH WIND       PRES   REMARKS
NORFOLK        PTCLDY    45  43  93 CALM      30.15F
ALBION         MOCLDY    43  40  91 CALM      30.15S
BLAIR          CLOUDY    57  55  92 CALM      30.14S
FREMONT        CLOUDY    51  50  97 CALM      30.15S
TEKAMAH        CLOUDY    56  53  90 CALM      30.14F
WAYNE          CLEAR     43  42  95 CALM      30.16S
$$

NEZ050>053-065>068-078-088>093-011100-
SOUTHEAST NEBRASKA

CITY           SKY/WX    TMP DP  RH WIND       PRES   REMARKS
LINCOLN        CLEAR     46  45  96 N5        30.16S
OMAHA EPPLEY   CLOUDY    58  53  84 N3        30.15R
BEATRICE       PTCLDY    46  46  99 CALM      30.15R
FALLS CITY     CLOUDY    52  51  97 W3        30.13S
NEBRASKA CITY  CLOUDY    55  54  96 CALM      30.14S
PLATTSMOUTH    CLOUDY    55  52  90 NW3       30.14S
$$

NEZ044-045-051>053-067-011100-
OMAHA AREA

CITY           SKY/WX    TMP DP  RH WIND       PRES   REMARKS
OMAHA EPPLEY   CLOUDY    58  53  84 N3        30.15R
BLAIR          CLOUDY    57  55  92 CALM      30.14S
FREMONT        CLOUDY    51  50  97 CALM      30.15S
MILLARD        CLOUDY    58  55  88 CALM      30.14S
OFFUTT AFB     CLOUDY    57  56  97 NW2       30.13S
PLATTSMOUTH    CLOUDY    55  52  90 NW3       30.14S
WAHOO          FAIR      47  46  96 NW5       30.15S
$$




USA.gov is the U.S. government's official web portal to all federal, state and local government web resources and services.